Retour au catalogue

QIANFAN-55

ActifCommunicationsPO
NORAD 62785·PAYLOAD·🇨🇳 China

Lancé Jan 23, 2025 depuis Taiyuan Satellite Launch Center

Loading…

Prochains Passages (prochaines 24 heures)

TLE

FraisSource: Space-Track

Époque: Sep 14, 2026, 14:04 UTC

1 62785U 25016A   26257.58631113  .00000030  00000-0  28778-4 0  9991
2 62785  88.9669  74.5740 0015499 271.5771  88.3604 13.51024597 84436

Suivez QIANFAN-55 en temps réel avec AllMySat

Download on the App Store